Location: Asheville, NC
(35.6000°N, 82.5500°W)
Time: 03:20:22
(UTC-04:00)

Vanguard 1 - Pass Details

Date: 10 March 2018
Orbit: 650 x 3833 km, 34.3° (Epoch: 17 June)

Event Time Altitude Azimuth Distance (km) Brightness Sun altitude
Rises 17:54:05 0° 282° (WNW) 6,245 15.7 7.1°
Reaches altitude 10° 18:00:58 10° 264° (W) 4,482 16.5 5.7°
Maximum altitude 18:06:45 15° 234° (SW) 3,383 14.0 4.6°
Drops below altitude 10° 18:11:12 10° 201° (SSW) 3,254 13.2 3.7°
Sets 18:14:56 0° 177° (S) 3,779 13.1 2.9°
